Wind_Speed
10 4 2 4 4 5 2 2 3 2 4 9 17 18 10 7 3 4 13 9 7 10 11 12 11 11 10 9 9 8 8 7 7 10 8 7 6 6 4 2 7 11 10 12 10 11 11 10 10
8 1 2 4 5 4 2 2 5 3 15 21 16 12 10 3 8 14 13 8 7 11 10 10 10 9 9 8 8 8 8 8 6 7 7 6 6 7 5 5 8 6 8 10 9 12 12 10 8
5 4 2 4 4 5 5 4 6 8 22 6 7 11 5 5 12 13 9 10 6 11 9 9 10 8 7 7 7 7 8 8 6 6 7 6 5 6 6 6 8 7 8 9 7 9 10 10 7
6 3 4 4 4 1 7 7 7 8 7 7 17 8 6 4 10 10 15 10 11 9 7 6 8 7 6 5 5 6 6 6 5 5 5 5 5 5 5 4 7 8 5 7 4 6 9 9 7
5 3 4 4 4 3 2 11 14 4 5 11 4 4 5 7 11 18 16 12 11 8 6 5 7 7 5 5 4 4 4 4 4 4 2 2 2 4 4 4 2 3 3 5 2 2 7 9 7
4 3 4 4 3 3 4 10 11 12 16 13 15 8 4 9 19 21 16 12 9 9 8 7 7 7 5 4 3 2 2 2 2 3 3 1 1 2 3 3 2 3 4 3 1 1 4 6 7
4 4 4 5 5 2 4 10 7 13 10 5 14 5 11 12 17 20 16 12 10 9 9 10 9 8 7 5 3 2 2 1 1 1 1 2 2 3 3 3 1 1 0 0 1 0 2 4 4
3 3 5 3 6 4 6 5 11 14 6 13 9 7 7 18 19 19 16 13 12 9 3 4 6 8 7 7 6 5 4 3 3 3 3 3 3 3 4 4 3 2 2 2 3 4 3 4 6
5 4 1 3 6 5 11 6 4 7 12 7 4 14 15 21 22 19 16 13 12 8 5 3 2 2 2 3 5 5 5 5 6 6 6 6 5 5 5 4 3 3 5 6 5 5 7 7 8
5 3 2 2 6 6 10 13 13 7 12 8 16 17 20 22 23 20 17 14 11 7 4 3 2 3 4 4 5 7 7 6 6 7 8 8 8 8 8 7 7 5 6 7 8 9 9 9 10
2 2 4 5 3 15 13 11 6 19 2 17 25 24 22 22 20 17 14 10 5 5 5 3 4 4 6 8 8 10 10 9 9 8 8 8 8 8 9 9 9 8 9 10 10 11 11 10 10
2 5 4 4 7 6 8 9 7 10 6 16 23 24 24 22 20 17 13 11 10 8 6 6 6 6 7 8 10 12 12 12 11 10 11 11 10 10 10 11 11 11 11 12 12 12 12 12 11
2 2 4 4 6 8 3 5 2 9 10 17 24 24 23 20 16 14 12 10 11 10 9 9 9 9 9 11 11 11 13 14 13 14 12 13 13 14 11 12 13 13 14 14 14 14 14 14 14
1 2 4 3 2 4 4 3 2 8 12 22 24 23 21 20 19 18 18 16 14 12 13 12 11 10 12 15 16 15 13 13 14 16 15 14 14 14 17 16 15 15 15 15 15 15 16 16 17
1 1 3 3 4 1 3 5 6 9 14 21 23 22 21 20 20 21 19 18 14 13 15 15 15 17 19 20 19 18 18 17 16 15 15 16 16 18 17 18 19 19 16 17 17 17 18 19 19
3 5 2 3 7 4 6 7 11 13 10 16 21 22 23 22 21 21 20 19 17 16 17 19 19 19 20 20 21 21 20 19 18 16 13 13 14 18 18 18 21 20 19 20 20 19 20 20 20
5 3 3 6 9 3 4 6 12 8 11 17 19 21 22 21 22 20 20 19 18 17 18 18 20 23 23 22 21 21 20 19 18 17 15 14 13 16 19 19 18 19 20 22 21 21 21 22 22
7 6 4 6 1 4 6 8 7 11 5 8 10 21 25 23 23 22 22 21 20 18 19 21 23 23 26 22 20 20 20 20 19 18 16 14 14 15 16 17 18 20 20 20 21 21 23 23 24
5 4 5 3 5 3 8 7 11 20 13 16 20 20 17 20 18 19 21 21 20 19 20 21 22 25 23 19 17 16 16 15 14 16 14 9 8 13 13 18 14 17 20 21 21 23 24 26 23
4 4 3 4 3 5 3 7 8 11 9 19 25 27 27 25 22 20 19 19 20 20 20 21 20 21 17 15 13 12 11 13 13 14 13 13 13 12 15 14 12 11 12 14 17 18 20 23 23
4 5 4 4 4 4 6 6 7 9 16 30 36 36 35 36 30 25 24 24 23 21 19 17 17 17 15 13 11 11 12 16 15 13 11 11 12 13 14 12 13 12 11 11 12 12 13 16 16
6 6 5 3 2 4 1 6 6 6 8 7 27 35 44 37 34 29 30 28 23 19 18 17 15 15 11 9 8 8 9 14 15 13 12 12 10 12 12 13 13 13 14 14 13 14 15 14 15
5 6 7 4 3 0 3 4 6 4 6 11 17 28 31 38 38 35 34 27 23 19 18 17 16 12 9 8 7 7 8 11 12 11 11 12 15 16 16 16 15 14 14 14 15 16 15 13 13
7 6 5 4 2 6 8 8 5 6 11 5 13 25 25 25 28 31 31 26 25 23 20 19 15 11 9 8 8 7 6 7 8 9 11 12 13 15 15 15 14 14 15 16 17 16 16 17 14
5 8 1 1 4 7 2 8 12 7 9 8 9 13 17 17 24 29 33 31 26 22 21 18 15 12 11 11 9 8 7 6 6 7 7 7 9 10 10 11 11 12 13 13 13 14 14 15 16
11 10 5 8 5 4 2 7 6 10 18 24 31 23 14 19 23 28 31 28 24 22 20 18 17 14 14 13 12 11 10 9 9 9 9 10 11 11 12 12 12 13 13 14 14 14 14 13 12
5 9 5 4 2 2 4 6 8 9 9 7 6 13 14 20 26 29 29 25 22 21 21 19 18 18 18 16 15 14 14 12 11 12 12 13 14 14 14 14 14 14 15 15 16 15 15 14 12
7 8 3 2 2 4 5 5 7 2 10 5 5 17 20 23 28 29 27 24 22 23 22 21 21 21 19 19 18 18 16 15 13 13 12 13 14 15 16 17 17 16 16 15 14 12 11 9 8
5 7 5 5 5 5 2 6 7 13 6 8 8 15 20 25 28 29 26 25 23 23 23 24 24 22 22 22 21 20 17 16 15 15 15 15 16 16 17 17 16 16 14 13 11 9 7 6 5
16 10 15 6 5 4 2 14 3 6 9 3 5 10 20 27 28 27 26 25 25 25 25 26 25 25 24 26 25 22 20 18 17 16 16 16 16 17 17 17 16 15 13 10 8 6 6 5 4
Wind_Direction
349 338 147 135 63 67 66 20 162 143 61 81 82 95 101 65 55 153 131 165 182 159 148 146 135 126 117 109 105 107 118 112 109 93 106 123 142 159 178 132 81 122 106 99 115 140 127 121 112
355 22 132 113 89 84 315 287 112 128 125 110 84 86 54 63 98 131 146 147 160 159 147 148 144 132 121 113 103 100 105 118 111 94 79 108 108 112 143 124 121 111 115 108 115 137 151 138 132
7 34 52 93 115 148 158 217 153 137 148 134 111 75 79 101 123 149 147 138 145 149 147 144 155 143 130 123 110 104 104 116 116 99 99 91 85 84 92 130 125 127 120 106 120 133 153 161 158
20 41 60 79 113 345 152 189 149 138 111 132 119 71 87 136 151 159 140 135 139 127 131 138 158 154 140 126 110 100 102 111 117 107 96 80 67 57 37 81 126 134 143 131 141 122 147 150 146
51 53 58 61 49 86 72 160 144 117 89 124 119 103 85 108 149 149 146 147 145 149 177 172 170 171 157 139 123 117 113 110 115 145 143 103 55 74 53 58 84 115 155 154 158 146 159 152 139
69 63 73 121 172 157 115 158 119 98 105 111 105 103 107 130 146 150 152 154 166 172 186 189 186 188 185 173 143 130 117 124 137 152 190 229 283 9 26 54 115 131 150 164 126 127 175 178 174
89 80 184 144 165 63 112 104 126 127 116 96 131 93 147 151 153 152 158 169 165 185 190 186 191 197 204 206 207 197 201 214 224 227 220 223 263 304 318 338 65 128 75 55 248 260 206 213 211
29 84 129 171 168 198 142 103 130 120 101 124 125 151 176 172 154 157 166 180 181 198 229 166 183 202 213 223 232 233 235 248 257 257 263 268 274 286 303 320 315 309 303 292 283 286 276 254 254
337 72 143 164 174 176 147 119 121 121 129 114 153 152 155 159 159 167 176 187 192 205 193 163 156 152 188 201 214 227 227 240 252 256 259 263 268 276 284 289 321 322 313 314 306 300 292 280 269
54 83 191 259 171 169 161 142 138 126 118 94 122 135 149 159 167 172 180 179 181 189 198 217 255 284 289 288 266 264 255 253 256 253 254 257 260 265 272 268 279 289 298 306 315 310 302 300 285
31 84 308 10 110 148 146 146 137 139 195 167 158 156 161 164 170 173 173 177 171 176 205 244 279 299 299 292 288 290 276 259 264 258 248 246 248 255 267 269 276 285 290 296 301 308 305 306 302
93 38 8 356 46 121 139 147 110 163 203 186 174 166 165 171 172 175 182 187 195 213 237 263 276 285 299 299 297 292 294 301 281 267 267 266 260 255 267 273 278 284 291 292 291 295 300 301 301
122 62 53 63 61 55 112 71 122 166 191 186 173 172 174 179 182 178 187 204 207 218 242 246 250 265 281 286 292 290 291 293 297 296 295 272 269 273 271 280 282 285 285 289 289 290 293 295 296
153 118 161 137 93 48 65 353 57 170 158 166 176 182 184 185 183 187 191 202 218 223 228 232 238 251 255 265 272 280 282 282 279 283 284 286 296 283 272 275 282 279 279 281 283 285 288 290 292
106 115 11 146 163 135 105 324 250 142 175 177 189 192 195 197 195 199 204 220 225 221 221 233 249 269 272 265 265 265 269 272 274 276 273 269 273 278 287 277 277 277 280 278 280 285 289 291 293
88 52 124 267 161 207 146 251 254 235 215 213 210 208 207 206 213 220 229 235 240 231 242 252 259 274 283 272 265 263 263 263 265 267 268 266 270 268 269 276 277 279 280 283 283 281 282 287 288
8 183 196 298 209 137 168 238 259 246 229 238 245 235 228 222 223 223 232 243 240 240 251 255 266 281 287 279 268 265 264 261 261 260 263 269 273 264 270 270 278 278 275 275 277 281 282 283 284
196 195 214 202 211 202 212 228 254 207 220 253 278 252 237 230 222 227 231 237 233 234 256 258 269 275 289 276 268 263 259 262 262 263 262 265 261 264 271 274 282 276 277 277 277 278 279 283 286
138 161 191 228 264 195 225 237 240 253 270 271 266 261 248 231 226 220 227 230 235 239 254 259 267 282 280 270 267 263 257 254 247 246 243 233 245 254 269 279 282 273 268 268 271 275 275 277 283
128 156 207 284 283 189 261 256 251 257 247 252 260 257 253 246 237 227 229 237 241 244 254 259 269 279 264 262 262 259 240 242 238 246 243 231 240 245 258 272 280 288 280 268 270 275 281 280 280
208 182 175 210 350 342 343 283 245 262 249 253 251 251 252 250 235 224 232 239 243 250 252 253 263 256 254 259 261 251 227 228 233 234 234 219 224 251 254 265 279 280 282 277 276 274 275 280 282
212 184 172 183 86 237 75 285 275 259 259 237 249 245 244 244 241 234 236 235 238 238 243 247 248 244 248 256 259 251 239 226 227 231 228 218 227 247 263 277 276 281 279 276 272 274 270 273 276
205 157 172 169 196 254 202 293 265 260 279 258 259 258 252 248 236 227 229 228 231 225 232 237 233 234 237 248 252 242 225 219 221 223 228 233 241 254 265 266 267 267 269 270 268 273 277 264 270
154 85 56 59 102 258 203 196 222 204 222 264 273 264 254 247 233 227 220 216 217 219 223 224 224 224 232 238 235 228 218 217 223 235 244 252 258 265 266 269 273 274 275 278 278 281 278 278 277
136 120 85 266 222 238 252 210 259 270 264 225 252 287 242 227 220 211 205 207 210 220 219 215 215 217 224 225 221 214 209 213 219 227 239 255 264 267 269 270 275 277 278 281 284 284 281 276 275
175 167 163 201 210 245 108 227 253 238 253 255 258 273 240 214 209 205 204 206 216 217 215 215 215 219 221 220 223 225 228 233 238 251 266 272 270 271 272 274 276 278 280 280 280 280 281 282 281
187 201 159 113 31 30 230 288 294 257 266 285 233 210 201 207 206 202 203 211 215 220 219 219 220 222 225 230 232 234 236 241 254 266 268 268 272 275 280 285 288 288 286 281 277 275 274 274 274
173 150 167 66 205 251 259 260 234 275 240 218 191 203 204 205 204 204 208 213 223 225 222 224 225 229 234 238 236 234 238 248 253 257 260 264 272 279 284 286 287 286 284 283 281 279 275 268 260
159 190 204 178 170 197 245 252 221 232 207 202 225 228 220 213 210 209 215 226 230 224 228 229 230 234 238 241 239 241 242 242 246 251 258 266 273 280 285 287 288 286 285 283 280 270 252 230 202
218 215 197 195 217 237 254 256 294 232 171 146 259 268 234 226 222 222 227 230 230 232 233 235 236 239 242 242 240 237 239 242 248 253 259 266 272 277 281 283 282 281 279 274 263 239 207 187 178
Height
1526 1525 1525 1526 1539 1545 1557 1554 1547 1546 1548 1548 1546 1546 1552 1556 1558 1567 1564 1566 1567 1568 1569 1570 1571 1572 1572 1572 1572 1571 1571 1571 1571 1571 1571 1571 1571 1571 1572 1571 1571 1571 1571 1571 1572 1574 1574 1574 1575
1525 1525 1525 1525 1548 1565 1564 1550 1548 1545 1547 1548 1548 1551 1553 1560 1559 1560 1564 1566 1567 1569 1570 1571 1572 1573 1573 1573 1573 1572 1572 1572 1572 1571 1571 1571 1571 1571 1572 1572 1572 1571 1572 1572 1573 1574 1575 1575 1576
1524 1524 1524 1530 1549 1561 1560 1549 1545 1545 1547 1547 1550 1553 1556 1561 1561 1562 1565 1567 1567 1569 1570 1571 1572 1573 1574 1574 1574 1573 1573 1573 1573 1572 1572 1571 1571 1572 1571 1571 1572 1572 1572 1573 1573 1573 1574 1575 1576
1523 1525 1527 1539 1546 1544 1544 1544 1542 1544 1547 1548 1550 1555 1559 1560 1562 1562 1565 1567 1569 1569 1571 1572 1572 1573 1573 1574 1574 1574 1574 1574 1573 1572 1572 1572 1572 1572 1572 1572 1572 1572 1573 1573 1573 1573 1574 1574 1575
1524 1525 1539 1547 1544 1541 1541 1541 1540 1543 1545 1548 1549 1558 1560 1561 1561 1563 1566 1568 1570 1570 1571 1571 1572 1573 1573 1573 1574 1574 1574 1574 1574 1574 1573 1573 1573 1572 1572 1572 1573 1573 1573 1573 1572 1573 1573 1574 1574
1526 1528 1549 1556 1547 1542 1541 1541 1542 1543 1547 1550 1552 1555 1561 1562 1562 1564 1566 1569 1570 1571 1571 1571 1572 1573 1573 1574 1574 1574 1574 1574 1574 1574 1574 1573 1573 1573 1573 1572 1572 1573 1573 1572 1572 1573 1573 1573 1574
1528 1535 1546 1552 1549 1542 1541 1541 1543 1544 1548 1549 1550 1557 1561 1562 1563 1565 1567 1569 1570 1571 1570 1570 1571 1572 1573 1573 1574 1574 1574 1574 1574 1574 1573 1573 1573 1573 1573 1573 1572 1572 1572 1572 1573 1573 1573 1573 1573
1531 1533 1541 1545 1548 1545 1540 1542 1544 1545 1549 1550 1551 1555 1560 1559 1563 1565 1567 1568 1569 1570 1570 1570 1570 1571 1572 1572 1573 1573 1573 1573 1573 1573 1573 1573 1573 1573 1572 1572 1572 1572 1572 1572 1572 1572 1572 1572 1572
1533 1542 1549 1542 1544 1540 1540 1541 1544 1546 1547 1549 1550 1551 1553 1558 1561 1564 1566 1567 1568 1569 1569 1569 1570 1571 1571 1571 1571 1572 1572 1572 1572 1572 1572 1572 1572 1572 1572 1572 1572 1572 1572 1572 1572 1572 1571 1571 1571
1535 1545 1540 1536 1534 1536 1538 1540 1542 1547 1548 1551 1551 1553 1554 1557 1559 1562 1564 1565 1566 1567 1568 1569 1570 1570 1570 1570 1570 1570 1570 1570 1570 1570 1570 1571 1571 1571 1571 1571 1571 1570 1571 1571 1570 1570 1570 1570 1570
1538 1543 1537 1536 1534 1534 1537 1539 1541 1544 1548 1546 1548 1551 1554 1556 1559 1560 1562 1564 1565 1566 1567 1568 1569 1569 1569 1569 1569 1568 1568 1568 1568 1568 1568 1568 1569 1569 1569 1569 1569 1569 1569 1569 1569 1569 1569 1568 1568
1540 1539 1538 1537 1537 1537 1538 1540 1541 1542 1543 1544 1547 1548 1551 1554 1556 1559 1560 1562 1563 1564 1565 1566 1567 1567 1567 1568 1567 1567 1567 1567 1566 1566 1565 1566 1566 1566 1567 1567 1568 1568 1568 1568 1568 1568 1567 1567 1567
1538 1540 1540 1539 1539 1539 1540 1541 1542 1541 1542 1544 1547 1549 1550 1552 1555 1556 1559 1560 1561 1562 1563 1564 1565 1565 1566 1566 1566 1566 1565 1565 1565 1565 1564 1564 1564 1564 1564 1565 1565 1565 1565 1565 1565 1565 1565 1565 1565
1539 1539 1539 1541 1540 1541 1542 1543 1541 1543 1543 1544 1546 1548 1550 1551 1552 1553 1555 1558 1559 1560 1561 1561 1562 1563 1563 1563 1563 1563 1563 1563 1562 1562 1562 1562 1562 1562 1562 1562 1562 1562 1562 1563 1562 1562 1562 1561 1561
1539 1541 1539 1541 1541 1541 1542 1545 1542 1544 1545 1546 1547 1548 1549 1549 1551 1551 1552 1554 1556 1557 1558 1559 1560 1560 1560 1559 1559 1559 1559 1559 1559 1559 1559 1559 1560 1560 1560 1559 1559 1559 1559 1559 1558 1558 1558 1557 1557
1542 1545 1550 1540 1540 1541 1543 1552 1539 1542 1545 1547 1548 1548 1549 1549 1549 1551 1551 1551 1552 1554 1555 1556 1557 1557 1556 1555 1554 1554 1554 1555 1555 1555 1556 1556 1556 1557 1556 1556 1555 1555 1555 1554 1554 1554 1554 1554 1554
1550 1555 1552 1545 1538 1539 1543 1547 1536 1538 1539 1541 1543 1545 1545 1546 1546 1548 1548 1548 1548 1550 1551 1551 1552 1552 1551 1550 1550 1550 1550 1550 1550 1551 1551 1552 1553 1553 1553 1552 1552 1552 1551 1551 1551 1550 1550 1549 1550
1550 1552 1549 1548 1538 1540 1542 1542 1535 1535 1536 1537 1538 1539 1541 1541 1542 1544 1544 1544 1544 1546 1547 1547 1547 1547 1547 1545 1545 1545 1545 1545 1546 1546 1547 1548 1549 1551 1549 1549 1548 1547 1547 1547 1546 1546 1546 1545 1545
1538 1543 1545 1544 1538 1539 1542 1540 1535 1531 1533 1534 1533 1534 1536 1537 1538 1539 1539 1540 1540 1542 1543 1544 1544 1543 1542 1541 1540 1540 1540 1541 1541 1541 1542 1544 1546 1546 1545 1545 1544 1543 1542 1543 1542 1542 1541 1541 1541
1539 1542 1545 1542 1538 1540 1538 1537 1533 1530 1529 1528 1527 1528 1530 1532 1533 1534 1535 1536 1536 1537 1538 1540 1540 1539 1538 1537 1537 1537 1538 1537 1538 1538 1539 1541 1541 1541 1540 1541 1541 1539 1538 1537 1537 1537 1536 1536 1537
1539 1543 1543 1543 1542 1540 1541 1538 1531 1522 1521 1520 1519 1518 1520 1523 1526 1528 1530 1530 1531 1533 1535 1536 1536 1535 1534 1534 1534 1534 1534 1534 1535 1536 1536 1537 1537 1538 1538 1537 1537 1537 1536 1535 1534 1533 1532 1531 1532
1540 1536 1539 1542 1546 1555 1543 1556 1532 1522 1518 1515 1510 1508 1509 1512 1519 1523 1523 1524 1526 1529 1532 1532 1532 1531 1531 1531 1531 1531 1531 1531 1532 1533 1533 1534 1535 1535 1535 1534 1533 1533 1532 1531 1530 1529 1528 1527 1527
1534 1533 1538 1541 1546 1548 1546 1556 1530 1521 1517 1510 1503 1501 1501 1502 1509 1514 1517 1520 1523 1526 1527 1527 1527 1527 1528 1529 1529 1529 1529 1530 1530 1530 1531 1532 1532 1531 1530 1530 1529 1529 1528 1528 1526 1525 1524 1523 1523
1528 1535 1540 1545 1548 1550 1542 1546 1532 1516 1506 1501 1497 1495 1495 1497 1502 1508 1513 1515 1518 1520 1522 1523 1524 1525 1526 1527 1528 1528 1528 1528 1528 1528 1528 1528 1528 1528 1527 1526 1526 1526 1525 1524 1523 1521 1520 1519 1518
1527 1538 1556 1559 1555 1549 1533 1538 1503 1506 1500 1497 1494 1491 1492 1494 1497 1501 1506 1509 1513 1516 1518 1519 1521 1523 1524 1525 1526 1526 1527 1527 1527 1527 1527 1527 1526 1526 1525 1523 1523 1522 1521 1519 1518 1517 1516 1515 1514
1520 1527 1539 1555 1550 1545 1535 1529 1508 1495 1492 1492 1490 1491 1491 1493 1496 1499 1503 1507 1510 1512 1515 1517 1518 1520 1521 1523 1524 1525 1525 1526 1525 1525 1524 1524 1525 1523 1522 1521 1520 1519 1518 1516 1515 1514 1512 1511 1510
1523 1523 1526 1538 1561 1555 1529 1516 1501 1492 1491 1489 1487 1488 1489 1490 1493 1496 1501 1504 1507 1509 1511 1513 1515 1517 1519 1520 1521 1522 1522 1522 1522 1522 1522 1522 1521 1519 1518 1517 1516 1515 1514 1512 1511 1510 1509 1507 1506
1513 1516 1530 1546 1560 1558 1522 1519 1502 1491 1491 1488 1488 1487 1488 1490 1493 1496 1499 1502 1504 1506 1508 1510 1512 1514 1516 1517 1517 1518 1518 1519 1519 1518 1518 1518 1517 1516 1514 1512 1512 1510 1509 1507 1506 1505 1504 1503 1502
1511 1514 1516 1517 1533 1539 1537 1509 1490 1484 1485 1488 1488 1489 1489 1489 1491 1494 1497 1500 1501 1503 1505 1506 1508 1510 1511 1513 1513 1514 1514 1514 1514 1513 1513 1513 1512 1511 1509 1508 1507 1506 1504 1503 1502 1501 1500 1500 1499
1498 1500 1504 1510 1524 1523 1518 1486 1480 1480 1482 1483 1485 1485 1486 1488 1490 1493 1495 1497 1498 1499 1500 1502 1503 1505 1506 1507 1508 1508 1508 1509 1509 1509 1509 1509 1508 1506 1505 1504 1503 1502 1500 1499 1499 1498 1498 1497 1497